Simultaneous Nadir Overpasses (SNOs) Predictions

Prediction of SNOs between NOAA-15 and METOP-C Satellite Orbit:

Table of predicted SNOs for the next 14.0 days since TLE Epoch: 1/13/2024
Index Date (NOAA-15) Time (NOAA-15) Lat,Lon (NOAA-15) SZA (NOAA-15 ) Date (METOP-C) Time (METOP-C) Lat,Lon (METOP-C) SZA (METOP-C ) Distance(km) Time Diff (sec)
1 01/16/2024 20:08:51 81.08, -84.07 103.55 01/16/2024 20:07:39 81.07, -83.91 103.53 3.21 72
2 01/16/2024 20:59:23 -81.07, 83.47 76.45 01/16/2024 20:58:19 -81.07, 83.45 76.48 0.72 64
3 01/16/2024 21:49:51 81.07,-109.18 103.55 01/16/2024 21:49:00 81.07,-109.04 103.54 2.51 51
4 01/16/2024 22:40:22 -81.07, 58.36 76.46 01/16/2024 22:39:39 -81.07, 58.32 76.47 1.16 43
5 01/16/2024 23:30:50 81.07,-134.30 103.54 01/16/2024 23:30:20 81.08,-134.17 103.55 2.76 30
6 01/17/2024 00:21:23 -81.08, 32.88 76.48 01/17/2024 00:21:01 -81.07, 32.82 76.50 1.29 22
7 01/17/2024 01:11:51 81.08,-159.78 103.51 01/17/2024 01:11:42 81.08,-159.67 103.52 2.03 9
8 01/17/2024 02:02:23 -81.07, 7.77 76.49 01/17/2024 02:02:22 -81.08, 7.70 76.49 1.47 1
9 01/17/2024 02:52:51 81.07, 175.10 103.51 01/17/2024 02:53:03 81.08, 175.21 103.53 2.19 12
10 01/17/2024 03:43:24 -81.08, -17.71 76.52 01/17/2024 03:43:44 -81.07, -17.80 76.52 1.93 20
11 01/17/2024 04:33:52 81.08, 149.62 103.48 01/17/2024 04:34:25 81.08, 149.71 103.50 1.61 33
12 01/17/2024 05:24:24 -81.07, -42.82 76.52 01/17/2024 05:25:05 -81.08, -42.93 76.51 1.97 41
13 01/17/2024 06:14:52 81.08, 124.50 103.47 01/17/2024 06:15:46 81.09, 124.58 103.51 1.62 54
14 01/17/2024 07:05:25 -81.08, -68.30 76.55 01/17/2024 07:06:27 -81.07, -68.43 76.55 2.59 62



Historial Predications of SNOs between NOAA-15 and METOP-C
